STARLINK-32399, 61627

Orbit data source: Space-Track

STARLINK-32399, 61627 is a payload satellite owned by SpaceX/Seattle (US) in LEO that was launched on Wed, 23 Oct 2024 UTC via an FALCON 9 launch vehicle from the Air Force Eastern Test Range (AFETR). Payload-class satellites include a variety of spacecraft equipped with specific instruments for various scientific and technological missions. These include communications satellites like Starlink; space stations such as the ISS; scientific satellites like the Hubble; Earth observation satellites from companies like Planet Labs, Umbra, and HawkEye 360; GPS; miniature CubeSats for education and research; and military/defense satellites.

Loading next visibility...
Identifier
61627, 2024-191G
Orbit
LEO
Country
Flag of USUS
Related business
Manufacturer
SpaceX/Seattle
Mission
Operational Commercial Communications
Bus & Motor
STARLINK V2M, Unknown motor
Mass
730 kg wet, ~700 kg dry
Launch date (UTC)
2024-10-23 (2 years ago)
Launch vehicle
FALCON 9
Launch site
Air Force Eastern Test Range (AFETR)
Object type
Payload
Rocket body
Debris
Shape & HBR
Box + 2 Pan, 17.7 m
Radar Cross Section
33.884 m², Large (>1 m²)

Expand to show TLE details & history
Last TLE update: 7 hours ago

TLE from 7 hours ago
0 STARLINK-32399
1 61627U 24191G   26125.45437459 -.00003252  00000-0 -10866-3 0  9994
2 61627  43.0009 186.4942 0001416 272.9402  87.1287 15.27596559 86306
Epoch: 2026-05-05T10:54Z
TLE epoch observation values (Epoch: 2026-05-05T10:54:17.964Z)
Latitude
-0.00006°
Longitude
159.5903°
Altitude
482.727 km
Speed
7.626 km/s
True Right ascension
12h 25m 58s
True Declination
0° 00' 00"
Sunlit
Object was in full shadow at epoch
Visualization orbit readout
Latitude
Unknown
Longitude
Unknown
Altitude
Unknown
Speed
Unknown
Apparent Right ascension
Unknown
Apparent Declination
Unknown
Sunlit
N/A
Visualization observer readout
Local Sidereal Time
01:59:54
Azimuth
Unknown
Elevation
Unknown
Doppler factor
Unknown
Orbital elements
Apogee altitude
485.916 km
Perigee altitude
483.973 km
Semi-major axis
6,863.082 km
Eccentricity
0.00014
Inclination
43.0009°
RAAN
186.4942°
Arg. of periapsis
272.9402°
True anomaly
87.14491°
Mean anomaly
87.1287°
Eccentric anomaly
87.1368°
Mean motion
3.81737 °/min
Orbital period
94.31 mins
BSTAR
-0.00010866
Loading maneuver chart data...
Computing Atmospheric mass density...
Loading historical data...
Loading historical data...
Loading historical data...
Loading historical data...
Loading historical data...
Loading historical data...
Loading historical data...

Documentation

Showing up to 5 results
|